Regional Weather Roundup
Issued by NWS

Home | Current Version | Previous Version | Graphics & Text | Print | Product List | Glossary On
Versions: 1 2 3 4 5 6 7 8 9 10 11 12 13 14 15 16 17 18 19 20 21 22 23 24 25 26 27 28 29 30 31 32 33 34 35 36 37 38 39 40 41 42 43 44 45 46 47 48 49 50
000
ASUS43 KDMX 310607
RWRIA

WEATHER ROUNDUP FOR IOWA
NATIONAL WEATHER SERVICE DES MOINES IA
1200 AM CST SAT JAN 31 2015

NOTE: "FAIR" INDICATES FEW OR NO CLOUDS BELOW 12,000 FEET WITH NO
SIGNIFICANT WEATHER AND/OR OBSTRUCTIONS TO VISIBILITY.

* - THESE STATIONS ARE NOT NWS STATIONS...THUS NOT UNDER NWS
QUALITY CONTROL.  THEY ALSO DO NOT REPORT WEATHER SUCH
AS PRECIPITATION OR FOG.

IAZ001>003-012>014-020>022-031>034-043>046-310700-
   NORTHWEST IOWA

CITY           SKY/WX    TMP DP  RH WIND       PRES   REMARKS
CARROLL *      CLEAR     30  23  74 SW14      30.21F WCI  20
CHEROKEE *     CLEAR     27  26  93 S7        30.17F WCI  20
DENISON *      CLEAR     30  25  80 S8        30.20S WCI  23
LE MARS *      CLEAR     30  27  86 S5        30.17F WCI  25
ORANGE CITY *  CLEAR     28  25  86 S8        30.15F WCI  20
SHELDON *      CLEAR     28  27  93 S10       30.14F WCI  19
SIOUX CITY     MOCLDY    28  24  85 E7        30.19F WCI  21
6HR MIN TEMP:  27; 6HR MAX TEMP:  37;

SPENCER          N/A     30  24  78 SW10      30.16F WCI  21
6HR MIN TEMP:  29; 6HR MAX TEMP:  32;

STORM LAKE *   CLEAR     30  25  80 SW14      30.18F WCI  20
$$

IAZ055>058-069>071-079>083-090>094-310700-
   SOUTHWEST IOWA

CITY           SKY/WX    TMP DP  RH WIND       PRES   REMARKS
ATLANTIC *     CLEAR     30  23  74 S12       30.24F WCI  21
AUDUBON *      CLEAR     30  23  74 S10       30.24S WCI  21
CLARINDA *     CLEAR     28  21  74 S7        30.30F WCI  21
COUNCIL BLFS * CLOUDY    34  27  75 SW12      30.22F WCI  25
CRESTON *      PTCLDY    32  21  64 SW13G18   30.26F WCI  22
HARLAN  *      CLEAR     30  27  86 S9        30.26F WCI  22
LAMONI         CLOUDY    28  18  66 S10       30.29F WCI  19
6HR MIN TEMP:  27; 6HR MAX TEMP:  30;

RED OAK *      CLEAR     30  23  74 S7        30.27F WCI  23
SHENANDOAH *   CLEAR     32  23  69 S6        30.29F WCI  26
$$

IAZ047>049-059>061-072>074-084-310700-
   CENTRAL IOWA

CITY           SKY/WX    TMP DP  RH WIND       PRES   REMARKS
AMES           CLEAR     24  17  74 S7        30.25F WCI  16
6HR MIN TEMP:  21; 6HR MAX TEMP:  28;

ANKENY *       MOCLDY    28  18  64 S6        30.27F WCI  22
CHARITON *     CLOUDY    27  19  74 S8        30.28F WCI  18
DES MOINES     MOCLDY    29  18  63 S7        30.27F WCI  22
6HR MIN TEMP:  27; 6HR MAX TEMP:  33;

GRINNELL*      PTCLDY    27  18  69 SW7       30.28F WCI  19
KNOXVILLE *    CLOUDY    27  18  69 S7        30.28F WCI  19
MARSHALLTOWN   CLEAR     26  16  65 S10       30.25F WCI  16
6HR MIN TEMP:  24; 6HR MAX TEMP:  28;

PELLA *        PTCLDY    28  19  70 SW6       30.31F WCI  21
PERRY *          N/A     26  22  86 S8        30.25F WCI  17
$$

IAZ004>006-015-016-023>025-035-036-310700-
   NORTH CENTRAL IOWA

CITY           SKY/WX    TMP DP  RH WIND       PRES   REMARKS
ALGONA *       CLEAR     27  23  86 S13       30.18F WCI  16
CLARION *      CLEAR     27  23  86 S12       30.20F WCI  16
ESTHERVILLE    CLEAR     27  23  85 SW12      30.15F WCI  17
6HR MIN TEMP:  27; 6HR MAX TEMP:  30;

FORT DODGE *   CLEAR     27  19  74 S9        30.21F WCI  17
MASON CITY     CLEAR     21  17  84 S7        30.20F WCI  12
6HR MIN TEMP:  20; 6HR MAX TEMP:  26;

FOREST CITY *  CLEAR     25  19  80 S5        30.19F WCI  19
IOWA FALLS *     N/A     27  19  74 S9        30.23F WCI  17
$$

IAZ007>011-017>019-026>030-037>042-050>054-066-310700-
   NORTHEAST IOWA

CITY           SKY/WX    TMP DP  RH WIND       PRES   REMARKS
CEDAR RAPIDS   CLOUDY    24  19  81 S8        30.29F WCI  15
6HR MIN TEMP:  20; 6HR MAX TEMP:  24;

CHARLES CITY * CLEAR     21  18  86 S10       30.22F WCI  10
CLINTON *      CLOUDY    23  18  80 S6        30.35F WCI  16
DECORAH *      PTCLDY    23  14  68 VRB6G15   30.21F WCI  16
DUBUQUE        CLOUDY    22  16  78 S9        30.29F WCI  12
6HR MIN TEMP:  17; 6HR MAX TEMP:  23;

MONTICELLO *   MOCLDY    21  18  86 SE3       30.30F
OELWEIN *      CLEAR     21  16  79 S9        30.26F WCI  11
WATERLOO       CLEAR     21  15  78 S7        30.26F WCI  12
6HR MIN TEMP:  21; 6HR MAX TEMP:  25;

$$

IAZ064-065-067-068-078-310700-
   EAST CENTRAL IOWA

CITY           SKY/WX    TMP DP  RH WIND       PRES   REMARKS
DAVENPORT      CLOUDY    24  17  74 S7        30.33F WCI  16
6HR MIN TEMP:  19; 6HR MAX TEMP:  25;

IOWA CITY      CLOUDY    23  19  85 CALM      30.33F
6HR MIN TEMP:  21; 6HR MAX TEMP:  27;

MT. PLEASANT * CLEAR     24  20  82 S5        30.33F WCI  19
MUSCATINE *    MOCLDY    27  21  80 S7        30.34F WCI  19
QUAD CITIES    MOCLDY    24  18  77 S6        30.33F WCI  17
6HR MIN TEMP:  19; 6HR MAX TEMP:  27;

$$

IAZ062-063-075>077-085>089-095>099-310700-
   SOUTHEAST IOWA

CITY           SKY/WX    TMP DP  RH WIND       PRES   REMARKS
BURLINGTON     CLEAR     25  19  78 S6        30.33F WCI  18
6HR MIN TEMP:  25; 6HR MAX TEMP:  28;

FAIRFIELD *    MOCLDY    27  18  69 S6        30.32F WCI  20
FORT MADISON * PTCLDY    27  21  80 S5        30.34F WCI  21
KEOKUK *       CLEAR     27  19  74 S7        30.34F WCI  19
OSKALOOSA *    CLOUDY    26  20  79 SW6       30.31S WCI  19
CENTERVILLE *  PTCLDY    28  21  74 SW7       30.32S WCI  21
OTTUMWA        CLOUDY    26  19  74 S3        30.30F
6HR MIN TEMP:  23; 6HR MAX TEMP:  28;

WASHINGTON *   CLOUDY    27  23  86 SW8       30.32F WCI  18
$$

ABBREVIATIONS USED IN REMARKS
   TC - TEMPERATURES IN CELSIUS
  WCI - WIND CHILL INDEX
   HX - HEAT INDEX
  VSB - VISIBILITY
$$




USA.gov is the U.S. government's official web portal to all federal, state and local government web resources and services.